Location: ???? ??????? ????
(31.2176°N, 31.6797°E)
Time: 01:15:16
(UTC+00:00)

ARGOS - Visible Passes

Search period start: 28 February 2021 00:00
Search period end: 10 March 2021 00:00
Orbit: 821 x 834 km, 98.4° (Epoch: 27 February)

Date Brightness Start Highest point End Pass type
(mag) Time Alt. Az. Time Alt. Az. Time Alt. Az.
28 Feb 3.1 17:01:40 10° SSE 17:07:04 87° ENE 17:12:31 10° NNW visible
01 Mar 3.2 16:43:14 10° SSE 16:48:30 57° ENE 16:53:48 10° N visible
01 Mar 6.0 18:26:25 10° WSW 18:29:01 14° W 18:31:38 10° WNW visible
02 Mar 3.7 16:25:02 10° SE 16:29:58 37° ENE 16:34:55 10° N visible
02 Mar 5.5 18:06:12 10° SW 18:10:14 21° W 18:14:19 10° NW visible
03 Mar 4.8 17:46:41 10° SSW 17:51:30 33° W 17:56:21 10° NW visible
04 Mar 4.0 17:27:35 10° S 17:32:49 51° W 17:38:05 10° NNW visible
05 Mar 3.3 17:08:46 10° S 17:14:10 79° WSW 17:19:37 10° NNW visible
06 Mar 3.1 16:50:12 10° SSE 16:55:34 69° ENE 17:00:58 10° N visible
06 Mar 6.2 18:34:49 10° WSW 18:36:11 11° W 18:37:34 10° WNW visible
07 Mar 3.5 16:31:54 10° SE 16:37:00 45° ENE 16:42:08 10° N visible
07 Mar 5.7 18:13:49 10° SW 18:17:23 18° W 18:20:58 10° NW visible
08 Mar 4.0 16:13:53 10° SE 16:18:30 30° ENE 16:23:09 10° NNE visible
08 Mar 5.1 17:54:05 10° SSW 17:58:38 27° W 18:03:13 10° NW visible
09 Mar 4.4 17:34:50 10° S 17:39:55 42° W 17:45:03 10° NNW visible
